sat.trackr.live / text

‹ back to catalog

STARLINK-31042

NORAD 58739 · 2024-005M

PAYLOAD ACTIVE UNKNOWN

§ Identity

Operator
Country
US
Launch date
2024-01-07
Launch site
AFETR
Launch vehicle
Mass (kg)
RCS (m²)

Purposes: comms

External: N2YO · Heavens-Above · Gunter

§ Orbital elements

Epoch: 2026-09-20T05:07:05.473056Z

Period
94.27 min
Inclination
43.0034°
Eccentricity
0.0001259
Mean motion
15.27578027 rev/d
Perigee alt
482.2 km
Apogee alt
483.9 km
Semi-major
6,861.2 km
B*
1.7408e-5
RAAN
201.1755°
Arg perigee
279.8214°
Mean anomaly
80.2496°
Rev number
15,019

§ Raw data

STARLINK-310421 58739U 24005M   26263.21325779  .00000217  00000+0  17408-4 0  99912 58739  43.0034 201.1755 0001259 279.8214  80.2496 15.27578027150198

JSON: /api/v1/satellites/58739 · /tle

For live sub-satellite position, see the globe view (requires WebGL).

§ Visibility from observer

Set your observer location to see the next 7 days of passes ≥ 10°. The values pass through the URL so the page stays shareable.

No JS? Fill the form by hand. The geolocation button needs JavaScript.